STARLINK-33642, 63978

Orbit data source: Space-Track

STARLINK-33642, 63978 is a payload satellite owned by SpaceX/Seattle (US) in LEO that was launched on Tue, 13 May 2025 UTC via an FALCON 9 launch vehicle from the Air Force Eastern Test Range (AFETR). Payload-class satellites include a variety of spacecraft equipped with specific instruments for various scientific and technological missions. These include communications satellites like Starlink; space stations such as the ISS; scientific satellites like the Hubble; Earth observation satellites from companies like Planet Labs, Umbra, and HawkEye 360; GPS; miniature CubeSats for education and research; and military/defense satellites.

Loading next visibility...
Identifier
63978, 2025-099AC
Orbit
LEO
Country
Flag of USUS
Related business
Manufacturer
SpaceX/Seattle
Mission
Operational Commercial Communications
Bus & Motor
STARLINK V2MO, Unknown motor
Mass
575 kg wet, ~530 kg dry
Launch date (UTC)
2025-05-13 (11 months ago)
Launch vehicle
FALCON 9
Launch site
Air Force Eastern Test Range (AFETR)
Object type
Payload
Rocket body
Debris
Shape & HBR
Box + 2 Pan, 17.7 m
Radar Cross Section
36.964 m², Large (>1 m²)

Expand to show TLE details & history
Last TLE update: 1 day ago

TLE from 1 day ago
0 STARLINK-33642
1 63978U 25099AC  26093.51444002  .00040576  00000-0  14750-2 0  9999
2 63978  42.9992  32.4870 0001537  28.9385 331.1552 15.27601512 51089
Epoch: 2026-04-03T12:20Z
TLE epoch observation values (Epoch: 2026-04-03T12:20:47.617Z)
Latitude
-0°
Longitude
15.44112°
Altitude
481.836 km
Speed
7.627 km/s
True Right ascension
02h 09m 56s
True Declination
0° 00' 00"
Sunlit
Object was in daylight at epoch
Visualization orbit readout
Latitude
Unknown
Longitude
Unknown
Altitude
Unknown
Speed
Unknown
Apparent Right ascension
Unknown
Apparent Declination
Unknown
Sunlit
N/A
Visualization observer readout
Local Sidereal Time
18:22:21
Azimuth
Unknown
Elevation
Unknown
Doppler factor
Unknown
Orbital elements
Apogee altitude
485.985 km
Perigee altitude
483.875 km
Semi-major axis
6,863.067 km
Eccentricity
0.00015
Inclination
42.9992°
RAAN
32.487°
Arg. of periapsis
28.9385°
True anomaly
331.1467°
Mean anomaly
331.1552°
Eccentric anomaly
331.15095°
Mean motion
3.81738 °/min
Orbital period
94.31 mins
BSTAR
0.001475
Loading maneuver chart data...
Computing Atmospheric mass density...
Loading historical data...
Loading historical data...
Loading historical data...
Loading historical data...
Loading historical data...
Loading historical data...
Loading historical data...

Documentation

Showing up to 5 results
|